Flag for Australia Weather past 2 weeks in Wodonga, Victoria, Australia

Now
49 °F

Cool.


Feels Like: 49 °F
Forecast: 48 / 83 °F
Wind: No wind

Location: Albury Aeroport Aws

Current Time: Mar 31, 2015 at 7:55:20 AM

Latest Report: Mar 31, 2015 at 7:00 AM


Visibility: N/A

Pressure: 30.27 "Hg

Humidity: 83%

Dew point: 44 °F

Location of WodongaLocation

Historic Weather in Wodonga — Graph

°F

Wodonga temperature yesterday

Maximum temperature yesterday: 82 °F (at 4:00 PM)
Minimum temperature yesterday: 48 °F (at 7:00 AM)
Average temperature yesterday: 63 °F

Past Weeks' High & Low Weather Summary

 TemperatureHumidityPressure
High91 °F (Mar 19, 6:00 PM)94% (Mar 19, 3:00 AM)30.28 "Hg (Mar 19, 3:00 AM)
Low43 °F (Mar 29, 7:00 AM)23% (Mar 30, 6:00 PM)29.60 "Hg (Mar 18, 3:00 AM)
Average66 °F54%30.01 "Hg
* Reported Mar 16 6:00 AM — Mar 31 6:00 AM, Wodonga, Weather by CustomWeather, © 2015

Note: Actual official high and low records may vary slightly from our data, if they occured in-between our weather recording intervals... More about our weather records

Advertising

Wodonga weather history for previous 24 hours

 ConditionsComfort  
Time TempWeatherWind HumidityBarometerVisibility
6:00 AM
Tue, Mar 31
49 °FCool.3 mph81%30.25 "HgN/A
4:00 AM50 °FCool.No wind74%30.24 "HgN/A
3:00 AM51 °FCool.3 mph73%30.25 "HgN/A
1:00 AM55 °FCool.No wind61%30.24 "HgN/A
12:00 AM57 °FRefreshingly cool.3 mph59%30.24 "HgN/A
10:00 PM
Mon, Mar 30
62 °FRefreshingly cool.No wind53%30.23 "HgN/A
9:00 PM65 °FMild.No wind41%30.22 "HgN/A
7:00 PM75 °FMild.6 mph27%30.19 "HgN/A
6:00 PM80 °FPleasantly warm.9 mph23%30.16 "HgN/A
4:00 PM82 °FPleasantly warm.6 mph24%30.16 "HgN/A
3:00 PM79 °FPleasantly warm.7 mph26%30.18 "HgN/A
1:00 PM76 °FMild.5 mph28%30.22 "HgN/A
12:00 PM73 °FMild.3 mph36%30.25 "HgN/A
10:00 AM62 °FRefreshingly cool.5 mph56%30.28 "HgN/A
9:00 AM54 °FOvercast.5 mph70%30.27 "HgN/A
7:00 AM48 °FCool.No wind80%30.23 "HgN/A
Weather by CustomWeather, © 2015

See weather overviewHow to use our weather pages